Regional Weather Roundup
Issued by NWS Burlington, VT

Home | Current Version | Previous Version | Text Only | Print | Product List | Glossary On
Versions: 1 2 3 4 5 6 7 8 9 10 11 12 13 14 15 16 17 18 19 20 21 22 23 24 25 26 27 28 29 30 31 32 33 34 35 36 37 38 39 40 41 42 43 44 45 46 47 48 49 50
000
ASUS41 KBTV 130410
RWRBTV
VERMONT REGIONAL WEATHER ROUNDUP
NATIONAL WEATHER SERVICE BURLINGTON VT
1200 AM EDT SUN JUL 13 2014

NOTE: "FAIR" INDICATES FEW OR NO CLOUDS BELOW 12,000 FEET WITH NO
SIGNIFICANT WEATHER AND/OR OBSTRUCTIONS TO VISIBILITY.

* THESE REPORTS ARE NOT UNDER NWS QUALITY CONTROL AND/OR DO NOT
  REPORT WEATHER SUCH AS PRECIPITATION AND FOG.

VTZ001>019-130500-
_____VERMONT_____


CITY           SKY/WX    TMP DP  RH WIND       PRES   REMARKS
BURLINGTON     CLOUDY    74  64  71 S8        30.03S
MONTPELIER     PTCLDY    69  61  75 S5        30.11F
MORRISVILLE    PTCLDY    67  64  90 S6        30.06F
ST. JOHNSBURY*   N/A     68  63  84 MISG      30.06S
LYNDONVILLE*   CLOUDY    67  63  89 CALM      30.11R
MIDDLEBURY*    MOCLDY    76  63  62 S9        30.05R
RUTLAND*       CLOUDY    70  63  78 SE6       30.08F
SPRINGFIELD    MOCLDY    68  65  90 CALM      30.10S
HIGHGATE*      FAIR      68  64  85 SE3       30.01F
NEWPORT*       FAIR     N/A N/A N/A SW3       30.07F
BENNINGTON     MOCLDY    75  61  61 S8        30.09F
SUTTON*          N/A     64 N/A N/A MISG        N/A

_____LAKE CHAMPLAIN_____


CITY           SKY/WX    TMP DP  RH WIND       PRES   REMARKS
COLCHESTER RF*   N/A     73  68  83 S13         N/A
DIAMOND ISL*     N/A     72  66  83 SW5         N/A

$$

NYZ007-026>031-035-052-083-130500-
_____NORTHERN NEW YORK_____


CITY           SKY/WX    TMP DP  RH WIND       PRES   REMARKS
PLATTSBURGH    MOCLDY    66  64  93 CALM      30.01F
SARANAC LAKE   CLOUDY    60  58  92 CALM      30.07F FOG
MASSENA        CLOUDY    64  61  90 CALM      30.00F
OGDENSBURG*    CLEAR     61  59  94 CALM      29.99F
POTSDAM*       CLEAR     68  63  83 S3        30.01S
WATERTOWN      MOCLDY    67  56  67 CALM      30.01F
ALBANY         MOCLDY    75  60  59 S15G23    30.07S
GLENS FALLS    MOCLDY    70  69  97 CALM      30.05F FOG

$$
NHZ002-005-011-130500-
_____NEW HAMPSHIRE_____


CITY           SKY/WX    TMP DP  RH WIND       PRES   REMARKS
LEBANON        CLOUDY    70  64  81 S5        30.07F
KEENE          PTCLDY    70  55  60 S9        30.12F
MT WASHINGTON  FOG       52  52 100 SW29        N/A  VSB 0
PLYMOUTH       CLOUDY    66  64  93 CALM      30.09F
WHITEFIELD     CLOUDY    67  62  84 CALM      30.09S

$$

_____REGIONAL QUEBEC LOCATIONS_____


CITY           SKY/WX    TMP DP  RH WIND       PRES   REMARKS
MONTREAL       CLOUDY    73  61  64 SE5       29.99F
QUEBEC CITY    PTCLDY    63  57  82 N3        30.01F
SHERBROOKE     PTCLDY    64  61  88 E5        30.06S

_____REGIONAL ONTARIO LOCATIONS_____


CITY           SKY/WX    TMP DP  RH WIND       PRES   REMARKS
OTTAWA         MOCLDY    66  59  77 S6        29.98F

______KEY______
VSB  - VISIBILITY IN MILES
WCI  - WIND CHILL INDEX
HX   - HEAT INDEX
$$



USA.gov is the U.S. government's official web portal to all federal, state and local government web resources and services.